Wind_Speed
9 9 8 8 8 10 9 8 8 9 9 8 8 7 5 4 5 5 7 8 8 6 3 3 5 7 9 9 7 6 6 8 9 8 9 8 8 7 6 5 4 2 1 1 2 3 3 4 5 6 8 8 8 7 6 6 7 8 7 7 6 6 6 5 5 4 3 2 2 2 2 3 4 5 6 7 7 8 8 9 10 10 10 10 10
10 10 8 7 8 9 9 8 9 9 9 9 9 9 7 6 6 5 6 8 10 11 8 7 6 7 9 10 10 8 6 7 10 10 9 8 7 7 6 5 3 2 2 1 1 3 3 4 4 5 7 7 8 8 7 7 8 8 7 7 7 6 6 5 5 4 4 3 2 1 1 1 2 3 4 5 6 6 7 7 8 9 9 10 9
11 9 9 8 8 8 9 9 9 9 9 9 10 11 10 9 8 7 7 8 11 12 11 11 8 6 7 7 9 9 8 7 10 11 10 9 8 6 5 5 4 3 2 2 1 1 3 4 3 4 5 6 7 8 8 8 8 8 8 7 7 6 6 5 5 4 4 3 3 2 1 0 1 1 2 3 4 4 5 6 7 7 8 8 9
10 9 9 8 7 7 8 9 9 8 8 8 8 11 11 11 11 10 7 6 12 13 11 12 11 10 8 7 8 10 9 9 9 10 10 10 8 5 5 5 4 3 3 2 2 1 2 3 3 3 4 5 6 7 7 8 8 8 8 8 7 7 6 5 5 4 4 3 3 3 3 2 1 1 1 1 2 3 4 4 5 6 7 7 8
10 9 8 6 6 7 8 9 9 9 9 8 7 9 9 11 11 10 8 6 11 13 11 12 12 13 11 7 8 9 10 10 10 10 9 10 8 6 5 4 4 4 4 3 3 2 1 3 4 3 4 4 4 5 6 6 7 7 7 7 8 7 7 6 5 5 4 4 4 4 4 4 3 3 2 1 0 1 2 3 4 4 5 6 7
10 10 8 7 8 9 9 10 11 10 9 8 8 9 8 9 11 11 10 7 10 12 11 11 11 12 14 11 9 8 10 12 11 11 11 12 11 8 7 5 5 5 4 4 4 3 2 2 3 3 3 3 3 4 4 5 5 6 6 6 7 7 7 6 6 6 6 6 6 6 6 6 5 4 4 3 2 1 0 1 2 3 4 5 6
8 10 9 9 10 10 10 11 12 11 9 8 9 10 9 9 10 11 10 7 9 11 10 12 12 11 15 16 12 9 11 12 13 14 12 11 12 10 9 7 6 6 5 4 4 4 4 3 2 2 2 2 3 3 4 4 4 5 5 5 6 6 7 7 6 6 6 7 7 7 8 8 7 6 5 4 3 2 1 0 1 1 2 3 4
6 8 7 8 9 10 11 11 12 12 10 9 9 9 8 8 9 9 10 9 9 9 9 11 14 15 17 17 14 11 13 13 13 17 12 7 10 10 9 8 7 7 7 5 5 5 5 4 3 2 2 2 2 2 2 3 3 4 4 4 5 5 6 6 6 6 5 6 7 8 9 9 9 8 7 6 5 4 3 2 1 1 0 1 2
3 4 5 6 8 10 11 11 11 11 11 10 10 10 8 7 8 9 11 11 11 10 10 10 10 15 20 18 14 12 14 13 12 16 15 8 8 9 10 10 8 8 8 8 7 6 6 6 5 4 3 2 2 2 2 2 2 3 3 3 4 4 4 5 5 5 5 5 5 6 8 9 9 10 9 8 6 5 4 4 3 3 2 1 1
3 2 2 3 5 7 9 9 9 10 11 11 11 10 10 9 8 10 12 13 13 12 12 11 7 11 18 16 11 12 15 15 12 13 15 12 9 8 9 11 11 10 9 9 8 7 7 7 6 5 4 4 3 2 2 2 2 2 2 2 3 3 4 4 4 4 4 4 4 4 6 8 9 9 10 9 8 6 6 5 5 4 3 2 2
5 4 3 2 1 2 4 4 5 7 8 9 9 9 10 9 8 9 11 14 15 14 13 11 7 10 15 15 12 13 16 17 15 12 13 14 11 8 5 7 9 10 11 9 8 9 8 8 7 7 6 6 5 4 3 3 2 2 2 3 3 4 4 4 4 4 4 4 4 4 5 6 8 8 9 9 9 8 6 6 5 5 4 3 2
5 5 2 2 1 2 3 3 3 3 4 5 7 8 9 9 8 8 9 12 14 13 14 13 10 10 14 16 17 16 18 20 19 16 14 14 14 12 8 4 3 7 11 11 11 11 10 9 9 8 7 7 6 5 5 4 3 2 2 3 4 4 5 5 5 5 4 4 4 4 4 4 5 6 7 7 7 7 7 7 6 5 5 4 4
6 7 5 4 2 2 3 3 3 3 3 3 3 6 8 8 7 7 8 11 12 13 14 13 11 11 11 13 15 16 18 21 20 19 17 15 16 15 12 8 5 5 7 9 12 12 10 10 10 9 8 8 7 7 7 6 4 3 3 3 4 5 6 6 6 6 5 4 4 3 3 4 5 5 5 5 6 6 7 7 7 6 5 5 5
11 11 9 7 4 2 0 1 1 2 3 3 2 1 3 5 6 8 9 10 12 14 14 12 11 10 10 11 11 12 15 18 21 19 18 18 18 17 15 13 12 8 4 5 11 12 11 11 11 11 10 8 8 7 7 7 5 5 4 4 5 5 6 7 7 7 6 4 4 4 4 4 5 6 6 6 6 6 6 7 7 7 6 6 5
12 11 10 8 7 4 3 4 5 6 6 6 6 6 5 3 1 4 7 10 11 13 13 13 13 10 9 10 9 10 10 12 18 18 15 16 16 16 16 14 15 14 9 7 9 12 13 12 12 12 11 10 9 8 7 7 6 6 6 5 6 6 6 7 8 8 7 5 4 5 5 5 5 6 7 7 7 6 6 5 6 7 7 7 6
11 10 9 9 9 7 5 5 5 6 7 7 8 8 8 8 6 3 3 8 10 11 11 12 12 11 10 9 8 8 7 6 10 13 13 14 14 14 14 14 15 15 14 12 10 10 10 11 12 12 12 11 11 10 9 9 8 6 6 6 7 7 7 7 8 8 8 7 7 6 6 6 5 6 7 8 8 7 6 5 5 6 6 7 7
10 9 9 10 10 9 7 5 4 6 8 7 7 7 6 7 7 7 6 5 6 8 9 9 11 11 11 10 8 7 7 6 5 7 10 12 13 14 14 13 14 14 15 15 14 12 11 10 10 10 11 11 11 11 11 11 10 8 9 9 8 8 8 8 9 9 10 10 9 9 8 8 7 7 8 8 8 7 6 6 5 6 6 6 7
7 6 9 12 11 9 8 6 7 8 8 8 7 6 4 5 6 8 9 7 4 4 5 6 7 9 11 10 8 6 7 8 6 6 8 10 11 13 14 13 13 13 14 15 15 15 14 12 10 9 10 10 10 11 11 11 11 11 11 10 10 9 8 9 10 11 12 12 12 12 11 10 10 9 9 9 9 9 8 7 6 6 6 6 6
8 6 8 13 13 10 9 8 9 9 8 8 7 6 5 4 6 7 8 9 8 7 7 6 4 5 6 7 7 7 7 7 7 6 7 9 9 10 11 11 11 12 13 14 15 16 16 15 13 13 13 12 12 12 13 14 14 14 13 13 12 12 10 10 11 11 12 13 14 15 14 13 13 12 11 11 11 10 9 8 8 8 8 8 8
11 10 10 12 13 11 9 8 8 7 6 8 8 7 8 8 6 6 6 7 8 8 8 8 7 8 8 6 4 4 5 7 7 8 7 7 7 8 8 7 7 8 9 11 13 15 16 16 16 16 14 14 15 15 14 13 14 15 15 15 14 13 12 11 11 11 11 12 13 15 16 16 15 14 13 13 13 12 11 10 9 9 10 11 10
12 12 12 12 12 12 10 8 7 8 8 8 7 7 8 9 9 7 8 7 7 7 7 8 8 9 10 9 8 7 5 4 6 7 7 5 4 4 4 4 4 5 5 6 8 10 12 14 15 16 14 14 15 14 12 11 12 13 13 14 13 13 13 13 13 13 13 13 14 15 15 16 16 16 16 16 15 14 13 12 12 11 11 11 11
12 12 12 12 12 11 9 7 7 8 10 10 11 10 9 8 6 7 9 9 9 8 6 7 7 6 7 7 8 7 7 7 6 6 5 4 4 4 3 2 2 1 1 2 3 5 8 10 12 12 12 11 11 11 11 11 12 12 12 12 12 12 13 14 15 15 15 15 16 16 16 17 18 19 19 19 18 17 17 16 16 15 13 12 11
11 11 11 11 11 11 9 8 8 9 10 10 10 10 10 10 8 8 7 7 8 7 6 7 8 8 7 7 7 8 7 7 6 6 5 4 5 6 5 4 4 3 3 1 2 2 3 6 8 10 10 10 11 11 12 11 11 12 12 12 12 12 13 14 15 15 15 15 15 15 15 16 18 20 21 21 21 20 20 19 18 18 17 15 13
10 10 10 10 9 10 10 9 9 9 10 10 10 10 10 9 8 8 8 7 7 5 5 6 8 10 10 9 8 7 7 6 6 6 6 5 5 6 6 5 5 5 4 1 2 3 3 4 3 3 5 6 8 11 12 12 13 13 11 10 10 10 11 13 14 14 15 15 16 16 16 16 17 18 19 21 22 22 22 21 21 20 19 18 17
9 10 9 9 8 8 9 9 9 8 9 9 9 9 10 9 8 8 7 7 6 6 6 7 7 7 8 8 7 7 7 7 7 7 7 7 6 6 7 6 6 5 3 1 0 0 1 1 1 3 3 3 2 3 6 8 10 10 8 7 8 9 10 11 12 13 13 14 16 17 17 18 19 19 19 20 21 22 23 24 24 23 22 21 20
8 9 9 9 8 8 8 8 7 7 7 6 6 8 10 9 8 7 7 6 6 5 5 6 6 6 5 5 5 5 5 5 5 5 5 4 3 3 4 6 6 5 5 3 1 1 0 1 2 1 2 4 4 4 4 4 5 6 6 7 8 9 11 11 12 13 14 15 16 17 17 17 19 21 22 22 22 22 24 26 27 27 26 25 23
6 6 7 7 7 8 8 7 6 6 6 5 5 7 8 8 8 7 6 7 6 5 5 5 5 5 5 5 5 5 4 2 1 1 3 2 1 2 3 4 4 4 6 6 3 3 5 5 3 2 0 3 4 5 3 1 2 6 7 8 9 9 11 12 13 14 15 17 18 18 18 19 19 20 21 22 23 24 24 26 27 28 28 28 27
2 3 4 5 5 6 6 6 6 5 5 4 4 5 6 6 6 6 6 6 6 6 6 6 5 5 6 5 5 6 5 5 4 4 5 4 2 2 2 4 4 4 6 7 4 4 6 7 7 5 3 2 2 2 3 4 3 5 7 7 8 10 12 14 15 16 17 18 18 18 18 19 19 19 20 21 22 23 24 25 25 27 28 29 29
2 2 2 2 3 5 5 5 5 4 4 4 3 3 4 5 5 5 6 6 6 7 6 6 6 6 6 6 6 6 6 5 5 5 5 5 5 3 2 2 2 2 3 3 3 3 2 3 5 5 3 3 4 4 3 4 6 8 9 10 12 14 16 17 19 20 21 21 21 21 21 20 20 20 20 21 21 22 23 24 24 25 26 27 28
5 5 5 4 4 4 5 4 4 3 3 3 3 3 3 3 4 5 5 5 6 6 6 6 6 6 6 6 6 6 6 5 5 5 5 5 5 5 4 4 4 4 4 3 2 0 2 2 3 5 6 5 4 5 5 6 9 11 12 14 16 18 20 22 23 24 24 25 25 25 25 24 23 21 22 22 22 22 22 23 23 24 25 25 26
7 7 7 7 6 6 6 6 6 5 4 3 3 2 3 3 3 3 3 4 4 4 5 6 5 5 5 6 6 6 5 5 5 5 4 4 5 5 4 4 4 4 3 4 4 3 3 4 4 6 9 10 10 10 10 11 13 14 16 18 20 22 24 26 26 26 25 24 23 23 22 21 18 18 19 21 23 24 23 22 22 22 23 25 26
7 7 8 9 9 9 9 9 9 7 6 6 5 4 3 4 3 2 1 1 1 2 3 3 3 3 3 3 4 5 5 4 4 4 4 5 5 5 5 5 4 4 5 5 5 5 4 5 5 4 7 9 10 11 13 14 15 17 19 21 22 24 24 24 23 22 20 19 18 17 15 14 13 13 14 17 20 23 25 24 23 23 23 23 24
7 7 9 10 11 11 11 12 11 10 9 8 8 7 6 6 6 5 4 4 3 2 1 1 1 1 1 1 2 3 3 3 3 3 3 4 4 4 5 5 5 6 7 8 8 8 7 7 8 8 8 8 8 8 9 11 11 13 15 16 16 17 17 17 16 15 15 15 15 14 13 13 14 15 16 16 17 18 21 24 25 25 25 25 25
9 9 9 10 11 11 12 12 12 12 12 10 10 10 9 8 8 8 8 7 7 7 6 4 3 3 3 3 2 2 2 0 2 2 3 3 3 3 4 5 5 5 5 6 8 10 10 10 11 12 12 12 12 11 11 12 12 11 11 11 11 12 12 13 13 13 13 13 14 14 13 14 16 17 19 19 19 19 19 21 22 24 25 26 27
11 11 10 8 9 10 10 11 11 13 14 14 13 12 11 10 9 10 10 10 9 10 10 9 8 7 6 6 5 3 2 2 1 1 1 1 0 1 3 3 3 3 5 6 8 11 13 14 14 14 15 15 15 14 14 14 13 13 13 13 13 13 13 13 14 15 15 16 17 17 16 17 19 20 20 20 21 21 20 21 21 22 23 24 25
13 13 13 13 13 14 14 14 14 14 14 15 15 14 14 13 13 12 12 13 12 11 12 12 12 12 10 9 9 7 5 4 4 4 4 3 3 3 3 4 5 6 6 7 9 11 14 16 16 16 16 16 16 16 16 16 15 14 15 15 15 15 15 15 15 15 16 16 17 17 15 16 19 21 22 23 23 22 22 23 24 24 25 24 24
16 16 17 17 17 17 18 18 17 15 16 17 16 16 17 18 18 16 16 15 14 13 13 13 14 15 14 12 11 11 9 8 6 6 6 6 6 6 6 6 7 8 8 8 10 11 14 16 18 17 17 18 18 17 17 17 17 17 16 15 15 16 17 17 16 15 15 14 14 14 14 14 15 17 19 21 22 22 23 23 23 24 25 25 24
18 17 18 19 20 21 23 22 19 18 19 18 17 18 19 20 21 21 20 18 16 15 15 15 15 16 16 15 14 14 12 10 9 8 9 9 9 8 9 9 10 10 10 11 12 13 15 17 18 19 19 19 20 19 18 17 17 18 19 18 17 16 16 17 17 16 16 16 16 17 18 17 17 19 21 22 23 23 24 24 24 24 24 24 24
19 18 18 19 20 21 22 22 20 20 20 17 17 21 22 20 20 23 22 22 20 18 17 17 16 16 17 16 17 16 14 12 11 11 11 11 11 11 11 12 12 13 13 14 15 16 17 18 18 19 20 20 20 21 20 18 17 17 18 20 20 19 18 18 19 20 19 20 22 23 23 24 24 25 25 24 24 23 24 25 25 25 23 22 21
18 19 19 19 18 19 20 21 21 22 21 20 21 24 24 21 21 23 23 24 24 22 19 18 17 17 17 18 19 18 16 14 13 12 13 13 12 12 13 14 15 15 16 16 17 18 18 19 19 20 21 21 21 21 21 21 20 19 19 21 24 24 24 24 24 25 26 27 29 29 28 26 24 21 19 18 17 16 17 19 20 21 21 20 20
11 12 14 15 16 18 21 23 24 24 23 24 24 24 25 24 25 25 24 24 25 24 21 19 19 19 18 20 21 21 19 16 14 13 13 14 13 14 15 16 17 17 17 18 18 19 19 20 21 21 22 22 22 22 22 22 22 23 24 24 26 28 29 30 29 28 29 31 31 30 27 23 20 20 19 18 16 15 15 16 16 18 19 20 21
6 7 8 10 12 15 18 20 22 22 22 23 23 23 24 25 27 27 25 23 24 25 23 22 21 21 21 22 22 22 20 17 15 15 14 14 14 14 16 18 19 19 20 20 19 20 20 21 21 22 23 24 23 22 23 23 23 25 26 27 29 30 30 32 31 27 26 28 30 30 27 22 21 23 23 22 23 23 22 20 19 20 20 21 21
6 7 9 10 10 11 12 13 16 17 18 19 20 21 22 23 24 27 28 27 24 23 24 24 24 24 24 23 21 21 20 18 17 16 15 15 15 16 17 19 20 20 21 21 21 21 22 23 23 23 25 25 25 24 24 24 24 24 26 27 29 31 31 33 33 30 27 27 29 33 33 28 26 29 31 31 32 32 29 26 24 24 25 26 26
6 6 8 10 11 11 11 12 12 14 14 14 15 17 19 20 22 25 28 30 28 25 24 26 26 25 25 24 21 20 19 19 18 18 17 16 17 17 18 19 20 21 21 21 22 23 23 25 25 26 26 27 27 26 25 25 25 26 27 27 28 30 32 33 36 36 32 31 34 38 40 37 35 37 39 38 37 36 34 33 32 31 30 30 30
9 8 8 8 10 12 14 14 14 14 13 13 13 14 15 17 20 22 24 28 29 26 24 26 28 27 26 24 21 19 19 19 19 19 18 18 19 19 20 20 20 20 21 22 23 24 24 25 27 27 27 27 28 28 27 27 28 29 29 29 29 29 31 32 34 35 33 33 36 40 42 41 38 40 42 40 39 39 38 37 35 33 31 29 28
11 11 11 10 10 11 13 15 16 16 16 15 15 15 15 15 17 19 21 23 24 22 23 26 27 26 25 23 21 20 20 19 18 18 19 20 21 22 21 21 21 21 23 23 23 24 24 25 26 27 27 26 28 29 28 27 28 29 30 31 31 31 32 33 34 35 33 31 33 39 44 42 37 40 42 40 38 38 37 36 34 30 28 25 23
10 11 12 13 13 13 14 14 16 17 17 17 17 16 16 16 17 17 19 21 21 20 22 24 25 24 23 22 21 20 19 19 18 19 19 20 21 21 21 22 23 24 25 25 24 24 24 24 26 27 27 26 27 29 29 29 29 28 29 30 31 33 36 38 38 38 35 32 30 35 42 40 34 36 39 37 36 36 35 32 29 26 23 21 19
11 12 12 13 14 14 15 15 16 17 18 18 19 18 17 18 18 17 18 21 22 21 21 23 24 24 23 22 20 19 18 19 19 19 20 22 23 23 23 24 26 26 27 26 26 26 26 26 27 27 27 27 27 28 29 30 31 31 32 34 34 35 37 40 41 39 37 34 30 31 37 39 34 34 37 35 34 35 33 29 25 22 20 17 15
12 13 13 14 15 15 16 16 17 18 19 20 20 19 19 19 20 20 20 21 22 23 23 24 23 22 20 20 19 19 20 20 20 20 22 23 24 24 25 27 27 28 28 28 28 29 29 29 29 29 29 29 29 29 30 30 31 32 34 37 37 36 37 39 40 39 37 36 34 32 35 37 32 31 33 32 30 30 29 26 22 18 16 16 16
13 14 14 15 17 18 18 18 18 19 20 20 21 20 20 20 20 20 21 22 23 23 23 22 21 19 19 20 21 21 21 20 19 20 21 23 24 26 27 27 28 29 30 30 31 32 32 33 32 32 33 33 33 34 34 33 33 33 34 37 37 35 36 37 38 39 39 38 35 30 30 31 27 24 26 28 27 26 24 20 17 15 17 18 18
15 16 17 18 19 19 19 19 20 20 20 19 20 20 20 20 20 20 21 22 22 22 21 20 20 20 21 21 21 20 19 18 18 20 22 24 25 26 27 28 29 30 31 32 34 35 36 37 37 37 37 36 36 35 34 34 34 33 34 36 36 37 38 39 38 37 38 37 32 27 26 28 25 23 24 28 30 29 26 20 15 14 17 17 16
Wind_Direction
217 217 223 226 221 220 220 217 222 225 217 209 218 224 216 226 215 170 163 158 145 159 200 216 221 217 210 208 205 213 242 258 255 247 238 239 262 268 264 273 283 297 284 200 166 182 208 213 212 210 209 205 201 201 193 181 179 182 186 189 184 178 176 176 175 173 165 149 116 84 63 62 61 62 65 63 60 56 53 51 49 47 45 46 46
220 225 233 229 217 220 224 220 223 230 229 216 219 231 233 239 237 206 182 166 159 172 182 177 199 224 217 209 200 199 216 250 266 262 247 240 254 267 261 263 272 296 312 274 201 180 196 214 220 215 214 212 204 206 203 194 192 192 192 193 193 189 187 187 185 185 186 181 174 161 86 59 59 60 61 62 62 58 55 51 48 47 43 43 42
221 229 231 224 215 219 226 225 225 229 232 222 219 227 230 235 235 221 209 190 178 179 188 191 193 206 222 220 213 221 216 231 265 265 262 251 244 261 265 264 269 285 313 327 310 194 184 203 218 218 217 217 209 208 208 205 204 202 202 200 200 200 198 199 198 199 202 203 204 211 226 255 23 46 55 59 61 58 58 54 49 47 43 41 40
223 226 226 227 218 216 227 231 233 233 229 222 226 232 231 236 239 232 230 210 192 188 192 196 196 205 224 231 235 252 229 218 256 262 267 261 241 250 272 282 277 282 303 318 331 293 181 184 200 209 212 215 215 216 216 214 213 211 210 210 213 214 210 210 214 216 219 226 231 238 246 249 265 291 355 41 53 52 53 54 50 47 43 39 37
221 223 224 233 234 232 240 237 233 232 226 221 232 238 234 241 249 246 248 231 194 189 191 191 195 208 214 212 225 244 226 218 242 254 264 258 244 254 271 287 284 293 308 304 313 301 226 187 193 195 194 200 211 225 230 227 225 222 220 218 222 228 227 224 229 235 240 247 252 254 257 256 255 259 266 276 330 39 46 47 46 45 42 39 35
222 231 234 244 247 239 239 241 239 235 231 226 231 235 229 236 248 247 250 246 202 194 199 195 196 208 210 206 208 219 224 221 224 239 257 254 249 256 258 268 282 293 304 300 301 291 268 218 200 197 185 181 191 219 237 237 240 240 237 232 232 239 242 241 239 245 253 258 260 261 262 262 259 258 259 262 264 269 35 40 37 39 37 38 35
219 231 231 233 243 240 238 244 246 243 241 236 232 233 229 232 243 245 244 244 223 209 206 207 207 210 212 214 214 214 223 215 206 219 239 248 244 245 247 251 264 279 288 297 297 287 276 252 227 217 205 190 189 209 224 232 244 251 253 250 249 252 256 260 256 257 263 265 266 266 265 265 265 264 261 259 259 256 244 229 34 38 35 35 35
215 229 228 225 236 246 247 242 241 243 243 242 240 239 235 234 236 239 235 226 219 209 201 211 220 222 219 218 218 218 224 217 203 208 215 230 234 233 245 250 250 265 272 280 289 286 276 259 245 237 229 219 209 220 216 216 229 240 252 256 260 263 266 272 273 274 274 274 276 274 271 268 268 269 266 261 253 249 243 226 213 203 106 46 43
200 229 234 234 235 244 248 244 243 246 244 241 242 244 246 242 234 228 224 218 211 210 213 214 227 231 221 218 221 221 224 220 203 201 203 203 210 223 246 253 248 255 264 270 277 279 273 267 259 241 233 235 237 253 248 241 240 235 244 252 262 267 271 277 279 282 280 280 283 279 275 270 268 268 266 263 255 247 241 229 221 212 204 182 120
146 166 181 205 225 235 242 249 248 244 245 245 243 246 248 243 234 225 220 218 211 212 222 219 228 230 213 211 226 227 223 220 206 196 195 192 190 207 238 253 249 247 258 265 267 271 273 270 264 252 251 259 258 260 270 276 270 261 255 253 264 270 272 274 274 276 276 278 280 275 271 265 264 263 260 260 256 249 243 235 228 221 214 202 179
158 163 146 137 203 239 223 241 248 238 243 247 245 245 247 241 231 225 216 217 217 217 223 219 218 221 210 212 229 237 233 224 217 207 195 191 187 176 193 249 258 251 251 257 264 270 275 269 263 266 271 274 271 264 269 272 267 279 290 280 279 278 273 270 266 266 270 275 279 282 277 267 262 259 257 259 256 253 248 240 236 229 224 220 210
164 170 154 102 47 286 230 229 250 257 263 257 249 240 242 241 229 226 217 219 225 223 226 227 220 215 216 221 228 235 235 228 224 220 209 203 202 192 182 205 279 275 257 252 261 270 274 268 260 266 276 281 275 262 258 250 240 279 308 292 282 279 275 268 262 263 268 277 287 299 305 294 280 271 266 265 262 259 255 250 245 238 233 230 228
153 147 138 117 140 255 265 269 269 285 314 307 275 251 242 243 237 230 223 225 230 227 227 232 227 219 221 225 230 233 231 228 225 222 220 219 218 214 207 207 227 284 279 249 249 259 266 264 261 263 272 280 273 258 251 240 239 277 301 293 284 274 268 266 264 260 260 271 292 312 330 336 329 316 300 285 279 274 268 262 256 249 243 238 238
121 129 136 130 133 164 292 353 82 97 41 40 36 303 245 251 255 240 225 223 225 226 226 224 223 221 218 222 231 238 235 230 225 224 225 227 231 228 222 218 217 232 265 240 238 246 250 255 260 261 265 276 275 260 247 241 255 284 289 287 282 273 264 264 265 262 262 270 294 314 328 344 352 345 330 313 300 289 282 276 268 260 252 244 241
121 129 140 143 137 125 102 96 105 104 84 75 81 84 85 80 324 245 226 220 217 220 221 217 218 213 206 216 231 241 244 233 226 228 225 220 226 228 223 223 219 221 222 214 228 243 249 251 253 253 253 260 266 260 250 253 266 277 280 278 273 269 263 261 265 266 269 278 293 308 316 324 339 344 339 329 316 301 290 287 279 266 255 248 243
136 142 152 163 155 144 128 118 117 110 104 97 95 97 93 90 84 84 188 212 213 214 218 219 220 212 207 218 226 230 240 236 226 230 228 221 225 224 219 218 219 224 226 219 222 238 251 255 255 254 251 249 248 245 245 249 252 248 254 260 259 260 258 260 267 268 268 270 272 283 296 301 310 321 326 328 325 312 293 285 283 275 263 254 246
150 160 173 180 171 163 153 140 148 129 119 123 121 115 114 107 95 87 110 170 199 206 212 216 218 215 210 212 210 213 223 217 204 215 221 225 234 232 222 217 219 226 232 230 229 235 243 250 256 259 259 259 255 249 247 244 243 238 237 240 241 245 252 261 268 269 269 270 268 268 275 281 286 296 305 312 321 318 300 281 274 275 271 266 257
164 157 167 174 171 165 156 152 169 158 137 137 136 131 141 131 115 105 103 107 123 161 180 189 206 209 206 209 210 210 215 210 200 201 206 213 225 227 224 223 225 229 233 233 234 237 239 240 241 238 242 252 254 254 256 254 256 257 252 245 236 231 238 253 264 268 269 272 275 275 274 276 279 283 285 290 302 309 302 287 270 263 262 266 265
144 124 137 159 168 160 142 138 156 168 176 183 176 171 185 167 136 130 124 117 112 115 122 124 144 174 184 206 221 222 221 215 205 199 201 208 214 217 218 219 224 228 232 235 235 235 236 238 236 229 229 237 244 252 258 263 268 271 269 261 249 240 236 240 250 260 266 270 275 277 278 278 277 277 276 278 285 292 295 292 279 262 253 253 256
115 108 110 138 158 153 134 130 132 132 160 190 192 190 194 189 172 155 145 137 133 133 127 116 116 121 118 126 157 189 213 220 215 203 197 207 216 218 216 215 217 221 226 235 237 234 232 233 234 233 235 242 248 253 256 261 267 270 270 267 259 253 247 242 242 247 256 264 267 271 275 276 274 273 273 274 278 281 282 285 285 274 261 253 251
105 107 105 116 135 141 139 137 121 105 110 124 129 136 163 185 196 189 170 153 147 152 145 134 137 134 125 126 127 119 129 171 199 199 190 194 207 207 212 222 231 234 234 237 240 239 236 234 236 238 241 242 244 249 255 260 263 265 266 266 263 260 259 257 253 249 248 252 254 258 264 268 270 271 272 272 273 274 272 275 279 279 274 265 258
106 108 108 109 116 126 134 129 112 107 107 103 101 104 117 137 158 175 179 176 172 174 172 167 166 153 142 143 143 137 132 138 150 161 164 170 171 159 155 170 196 228 244 239 258 262 254 246 241 239 237 234 236 247 257 259 261 263 261 261 262 264 267 266 261 257 254 250 248 248 252 258 262 265 269 271 271 270 269 270 271 273 275 273 267
106 107 106 108 111 115 118 114 108 107 105 101 98 96 94 97 99 110 135 157 170 181 184 181 177 168 163 157 149 149 148 147 148 150 157 171 174 169 162 149 144 132 111 83 351 335 286 267 259 254 250 246 246 251 256 259 264 267 262 258 260 266 271 271 266 261 260 259 257 255 255 257 259 261 264 267 270 270 269 268 267 268 271 272 272
107 108 106 105 107 111 110 106 103 100 100 99 97 96 90 85 86 91 98 109 121 129 125 138 158 167 174 178 170 163 160 161 169 180 199 221 222 210 198 174 160 151 136 107 33 53 37 5 342 306 289 276 264 260 260 260 263 268 269 270 276 280 282 280 273 265 263 265 266 264 260 259 260 261 262 264 266 267 267 266 265 266 268 268 270
107 107 107 106 104 106 105 100 98 94 92 91 92 98 94 85 85 88 90 96 97 100 103 109 127 150 169 180 179 181 189 194 202 213 223 236 240 228 218 209 196 182 171 179 204 111 24 13 37 29 355 321 272 256 264 262 266 276 288 301 305 296 286 281 275 270 268 268 268 267 266 263 261 260 262 264 264 264 264 263 264 266 267 267 266
106 106 103 105 105 101 99 95 94 93 90 88 91 100 100 92 89 89 91 96 96 95 98 102 110 124 140 148 144 157 186 204 219 225 216 219 220 198 201 215 221 219 203 185 197 315 101 201 233 288 311 284 256 232 244 260 281 295 299 296 291 285 282 280 277 276 274 273 272 272 272 269 265 262 262 262 262 262 262 261 261 264 266 267 266
96 99 94 95 93 91 93 92 90 90 89 87 79 86 95 94 92 94 95 94 97 101 102 103 109 111 114 125 127 124 125 141 160 133 128 146 182 163 159 174 197 210 192 174 140 92 99 119 160 159 134 285 271 249 225 167 307 290 280 279 279 280 282 280 279 279 277 276 276 275 273 271 269 268 266 263 260 258 260 261 262 264 265 266 267
62 72 73 69 66 70 79 88 90 86 84 86 77 73 83 91 93 92 93 95 98 101 99 101 103 103 108 116 119 108 96 93 86 81 83 71 76 132 163 160 159 165 177 180 163 129 113 123 144 148 126 119 151 180 149 130 177 237 246 262 274 280 284 285 285 285 285 284 282 280 277 273 271 269 268 266 262 258 258 260 262 263 264 265 267
298 329 356 12 22 34 44 61 74 72 71 78 79 71 76 92 97 91 91 98 99 95 92 95 93 88 96 107 108 101 93 90 85 78 78 72 68 63 55 95 104 104 140 177 174 164 140 129 156 171 164 147 151 159 166 179 204 225 242 259 269 275 280 283 285 287 287 287 285 284 282 279 276 272 268 267 266 262 260 259 261 262 264 265 266
261 284 295 309 326 344 355 6 23 31 35 39 41 43 47 71 92 97 96 87 84 88 88 90 86 77 81 87 87 86 84 84 83 78 78 80 75 66 57 51 45 46 47 33 30 327 262 270 248 240 250 260 241 220 222 234 243 249 258 266 271 276 280 282 284 284 284 283 282 281 281 280 277 271 266 263 262 263 262 261 261 260 262 263 264
243 269 282 292 299 307 318 325 334 340 340 340 338 350 358 11 43 76 96 87 84 95 95 88 84 77 78 82 86 88 88 90 96 96 95 93 89 86 80 67 56 50 40 29 26 10 304 284 283 270 267 271 273 264 256 257 262 264 267 270 274 277 280 282 283 282 281 280 279 279 279 278 277 273 267 262 258 258 259 261 263 263 263 263 264
240 259 273 285 293 298 302 307 311 311 312 313 307 305 300 299 316 328 347 34 42 77 94 94 91 83 73 84 96 92 85 82 85 94 104 105 101 99 91 76 61 47 29 14 10 15 1 330 323 312 284 275 276 274 267 263 264 266 268 270 272 274 275 277 279 281 282 280 277 277 277 276 272 272 271 268 263 259 257 257 261 264 265 264 265
236 253 268 281 289 294 297 301 304 302 301 302 299 297 288 280 282 281 280 281 294 314 337 171 157 119 85 119 119 90 73 61 56 58 72 80 77 75 73 58 38 23 13 2 351 355 5 356 346 347 338 319 309 302 289 280 275 273 271 271 273 275 276 277 279 282 285 285 284 283 281 279 274 271 271 271 269 265 262 259 258 260 263 265 266
226 242 261 278 285 288 294 301 303 300 299 298 294 294 292 284 277 275 272 267 273 284 284 273 268 263 259 243 202 146 138 338 21 20 22 42 47 38 39 37 26 5 348 342 338 339 348 352 348 345 343 337 333 331 324 315 311 305 298 296 298 295 293 293 292 294 296 297 295 288 281 277 276 275 274 273 272 271 269 267 265 264 264 264 265
227 234 243 256 262 262 269 283 288 285 289 294 292 291 296 294 287 279 274 270 268 272 277 277 272 268 266 259 252 233 218 242 275 309 327 1 31 358 12 10 349 329 326 328 329 330 334 339 342 340 338 335 333 332 328 321 318 317 315 314 312 310 307 305 300 298 297 296 295 293 287 280 274 273 273 272 273 272 272 274 275 275 273 271 269
223 221 225 234 241 247 259 274 277 265 261 267 271 273 279 286 292 289 281 275 270 266 270 272 270 269 268 259 259 264 263 260 260 273 283 281 286 305 320 325 317 314 321 322 320 320 322 326 330 332 331 328 327 328 326 323 321 320 319 316 313 311 311 309 304 299 295 291 290 290 288 280 273 271 270 270 270 270 271 272 274 277 279 278 277
230 223 226 234 239 246 258 271 274 262 249 248 255 264 267 269 276 284 284 278 274 270 267 266 266 268 268 262 258 261 265 266 268 278 287 289 293 300 301 301 302 305 310 311 311 310 311 316 321 324 325 324 323 326 326 323 320 319 318 317 315 313 311 310 307 304 300 292 287 283 281 278 276 274 273 272 271 270 269 269 269 272 275 277 278
251 244 242 244 247 252 260 267 268 260 254 257 267 274 273 267 265 269 274 276 275 273 269 266 264 264 264 262 258 258 263 270 276 281 288 292 293 292 291 293 297 300 304 306 308 309 308 311 315 318 320 321 320 321 323 320 316 316 317 315 312 310 307 303 300 298 294 289 287 286 286 285 283 280 278 277 276 275 273 272 272 272 274 278 281
258 257 256 256 257 258 261 264 262 256 254 260 267 268 269 273 270 264 264 268 271 271 268 265 262 259 258 256 253 256 263 274 282 287 291 294 294 291 289 294 298 301 303 306 306 308 308 309 311 313 314 316 317 316 315 312 308 305 303 300 298 296 293 290 288 287 286 283 283 283 282 282 282 281 279 277 276 276 275 274 275 276 278 281 283
255 260 264 264 265 265 262 262 260 257 254 254 257 257 258 267 272 263 256 257 262 265 265 262 257 252 250 248 248 251 259 272 282 289 294 294 291 290 291 294 297 298 301 303 304 305 305 305 307 308 309 311 313 311 309 307 303 296 289 287 289 290 287 284 282 283 283 282 282 283 284 286 286 285 281 276 274 274 275 273 271 272 276 279 281
261 266 269 266 265 264 263 261 259 258 257 256 257 257 257 260 262 257 251 250 254 257 259 257 252 246 244 244 247 251 260 270 278 285 291 291 290 293 293 293 294 296 298 299 301 302 302 303 305 306 305 307 309 308 307 306 301 295 291 287 285 285 284 282 282 282 283 285 286 288 290 290 287 286 285 282 280 279 279 275 269 267 268 269 271
292 295 288 279 272 266 263 259 257 257 258 258 258 258 259 260 258 252 248 248 248 251 253 252 247 244 243 245 250 257 264 270 277 284 288 288 289 292 291 292 294 297 298 299 300 301 301 302 304 304 304 305 306 306 304 303 299 294 293 291 288 286 285 285 285 284 283 285 289 291 290 286 282 282 282 281 282 286 286 278 270 266 266 265 266
299 306 306 302 295 284 274 266 261 258 258 260 261 260 259 260 257 250 247 247 246 245 249 251 247 244 244 247 254 261 264 268 275 282 284 283 286 288 289 292 295 296 297 297 298 301 303 304 304 304 303 303 305 304 302 301 298 294 293 292 289 288 286 285 286 285 285 285 286 286 285 283 281 280 281 282 284 287 288 283 275 270 267 266 267
292 296 302 304 302 299 292 284 275 267 263 260 262 262 259 258 257 253 251 251 249 245 247 249 247 244 245 248 254 259 261 266 276 280 280 282 286 288 290 294 296 296 296 298 301 305 306 305 304 304 304 305 305 304 303 302 299 296 294 291 288 287 285 284 284 284 285 285 284 283 283 283 282 281 282 284 285 286 286 285 283 280 277 274 270
279 282 291 298 300 299 296 293 288 283 279 273 267 264 261 259 261 261 260 259 256 251 247 244 242 243 246 248 250 254 258 266 275 280 282 286 291 294 295 296 296 295 295 299 303 305 304 303 302 303 305 305 303 303 304 303 300 299 297 294 292 289 286 284 283 283 285 286 287 287 285 284 285 285 285 285 286 287 287 287 289 289 288 285 279
271 272 275 277 281 285 289 291 291 290 289 286 280 270 264 266 270 269 266 265 259 249 242 240 240 242 243 243 246 252 259 265 272 278 283 289 294 295 296 296 295 295 296 298 300 300 299 299 298 299 301 299 297 298 299 297 296 296 297 297 296 293 290 288 286 286 287 288 291 292 289 288 291 290 289 289 290 290 290 292 294 296 295 293 288
285 280 275 271 269 270 274 280 284 284 283 283 282 275 267 269 274 272 268 265 257 243 235 236 240 241 239 239 244 252 258 262 269 277 282 287 291 291 291 292 292 292 293 295 296 296 296 296 296 296 297 295 294 293 294 294 293 293 293 292 291 291 293 293 292 292 294 295 296 295 293 294 296 293 291 292 293 293 295 296 297 297 300 302 299
287 288 287 283 277 270 267 268 272 275 276 277 279 279 273 270 270 271 269 265 257 247 239 234 232 233 235 240 247 253 258 263 271 277 281 285 287 288 288 289 290 291 293 296 297 297 297 298 298 297 297 295 294 293 292 293 292 292 290 287 286 288 289 290 290 292 295 297 297 297 295 297 299 297 294 294 295 294 296 297 296 297 301 303 297
278 280 282 282 279 273 269 266 265 268 272 273 276 278 275 270 269 269 267 260 252 247 242 235 230 230 235 244 252 259 264 270 276 279 282 285 287 288 288 289 291 293 296 298 299 299 300 300 298 297 295 292 290 288 286 286 286 287 286 285 286 287 286 286 288 290 292 293 295 296 296 297 301 300 298 297 295 293 293 295 296 294 287 284 284
274 273 271 269 267 267 266 264 263 266 270 272 272 273 272 270 269 269 265 257 249 242 237 235 236 240 247 253 258 262 267 270 274 279 283 285 286 286 288 289 291 293 296 298 298 298 298 297 295 293 291 289 287 285 284 284 282 281 280 280 283 283 282 282 285 288 290 291 293 297 297 298 304 305 301 299 294 288 287 289 289 284 278 279 282
269 266 265 264 264 266 266 265 264 267 271 272 269 267 268 267 266 266 262 255 247 241 236 237 243 251 256 259 259 261 262 264 269 276 280 281 282 283 285 287 289 291 294 295 296 296 296 295 295 294 293 291 290 289 288 286 284 281 277 276 275 275 276 278 280 284 286 287 290 294 295 295 299 296 293 295 294 289 285 281 275 277 285 290 293
Height
1539 1539 1540 1540 1541 1542 1542 1543 1544 1545 1545 1546 1546 1547 1548 1547 1548 1548 1549 1550 1549 1550 1552 1554 1556 1556 1557 1558 1559 1559 1560 1560 1560 1561 1561 1562 1562 1562 1562 1562 1562 1562 1562 1562 1562 1562 1563 1563 1564 1564 1565 1565 1565 1565 1566 1566 1566 1566 1566 1566 1566 1566 1566 1567 1567 1567 1567 1568 1568 1568 1568 1568 1568 1567 1567 1567 1567 1567 1566 1566 1565 1565 1565 1564 1564
1539 1539 1540 1540 1540 1541 1541 1542 1543 1544 1545 1545 1545 1546 1547 1547 1548 1548 1548 1548 1548 1549 1550 1552 1554 1555 1557 1558 1558 1559 1559 1559 1559 1560 1560 1561 1562 1562 1562 1562 1562 1562 1562 1562 1562 1562 1562 1563 1563 1564 1564 1564 1564 1565 1565 1565 1566 1566 1566 1566 1566 1566 1566 1566 1567 1567 1567 1567 1568 1568 1568 1568 1568 1568 1568 1568 1567 1567 1567 1567 1566 1566 1565 1565 1565
1539 1540 1540 1540 1540 1540 1541 1542 1542 1543 1544 1545 1545 1545 1546 1547 1547 1547 1547 1548 1548 1549 1550 1551 1552 1554 1555 1557 1558 1559 1559 1559 1558 1559 1560 1560 1561 1562 1562 1562 1562 1562 1561 1562 1562 1562 1562 1562 1563 1563 1564 1564 1564 1564 1565 1565 1565 1565 1565 1566 1566 1566 1566 1566 1566 1567 1567 1567 1567 1568 1568 1568 1568 1568 1568 1568 1568 1568 1567 1567 1567 1566 1566 1566 1565
1538 1540 1541 1540 1539 1540 1541 1541 1541 1542 1543 1544 1545 1545 1545 1546 1546 1546 1547 1548 1548 1549 1550 1550 1551 1552 1554 1555 1557 1558 1558 1558 1558 1558 1559 1559 1560 1561 1562 1562 1562 1561 1561 1561 1562 1562 1562 1562 1562 1563 1564 1564 1564 1565 1565 1565 1565 1565 1565 1566 1566 1566 1566 1566 1566 1566 1567 1567 1567 1567 1568 1568 1568 1568 1568 1568 1568 1568 1568 1568 1567 1567 1567 1566 1566
1537 1539 1541 1541 1539 1539 1539 1539 1540 1541 1542 1543 1544 1544 1544 1545 1545 1545 1546 1547 1547 1548 1548 1549 1550 1551 1553 1554 1555 1556 1557 1557 1557 1557 1557 1558 1559 1560 1561 1561 1561 1561 1561 1561 1561 1562 1562 1562 1562 1563 1563 1564 1564 1565 1565 1565 1565 1565 1565 1565 1566 1565 1566 1566 1566 1566 1566 1567 1567 1567 1567 1567 1568 1568 1568 1568 1568 1568 1568 1568 1568 1567 1567 1567 1567
1536 1536 1539 1539 1538 1538 1538 1538 1539 1540 1541 1542 1543 1543 1543 1544 1544 1544 1545 1545 1546 1546 1547 1548 1549 1550 1551 1553 1553 1554 1555 1555 1556 1556 1556 1557 1558 1559 1560 1560 1560 1561 1561 1561 1561 1562 1562 1562 1562 1563 1563 1563 1564 1564 1565 1565 1565 1565 1565 1565 1566 1566 1566 1566 1566 1566 1566 1566 1567 1567 1567 1567 1567 1567 1567 1568 1568 1568 1568 1568 1568 1568 1568 1567 1567
1535 1535 1536 1537 1536 1537 1537 1537 1538 1538 1539 1541 1542 1542 1542 1543 1543 1543 1543 1543 1544 1545 1546 1547 1548 1549 1549 1550 1551 1552 1552 1553 1554 1555 1555 1555 1556 1557 1558 1559 1560 1560 1560 1561 1561 1561 1562 1562 1562 1563 1563 1563 1564 1564 1564 1564 1565 1565 1565 1565 1565 1566 1566 1566 1566 1566 1566 1566 1566 1567 1567 1567 1567 1567 1567 1567 1568 1568 1568 1568 1568 1568 1568 1568 1567
1534 1535 1536 1536 1536 1537 1536 1536 1537 1538 1538 1539 1540 1540 1541 1542 1542 1542 1543 1543 1544 1545 1545 1546 1547 1547 1547 1548 1549 1550 1550 1551 1552 1553 1554 1554 1555 1556 1557 1558 1559 1559 1560 1560 1561 1561 1561 1562 1562 1562 1562 1563 1563 1564 1564 1564 1564 1564 1565 1565 1565 1565 1565 1565 1566 1566 1566 1566 1566 1566 1567 1567 1567 1567 1567 1567 1567 1567 1567 1567 1568 1568 1568 1568 1568
1534 1534 1535 1536 1536 1536 1536 1536 1536 1537 1537 1537 1538 1539 1539 1540 1540 1541 1542 1543 1544 1545 1545 1546 1546 1546 1546 1546 1548 1548 1549 1550 1551 1552 1553 1553 1554 1555 1556 1557 1557 1558 1559 1559 1560 1560 1561 1561 1562 1562 1562 1562 1563 1563 1564 1564 1564 1564 1564 1564 1565 1565 1565 1565 1565 1565 1566 1566 1566 1566 1566 1566 1566 1566 1566 1566 1566 1567 1567 1567 1567 1567 1567 1567 1567
1533 1534 1534 1535 1536 1535 1535 1535 1535 1535 1535 1536 1537 1537 1538 1538 1539 1540 1542 1543 1544 1544 1544 1545 1545 1545 1544 1546 1547 1548 1549 1550 1551 1551 1552 1553 1553 1554 1555 1555 1556 1557 1558 1558 1559 1560 1560 1561 1561 1561 1561 1562 1562 1562 1563 1563 1564 1564 1564 1564 1564 1564 1565 1565 1565 1565 1565 1565 1565 1565 1565 1565 1566 1566 1566 1566 1566 1566 1566 1566 1566 1566 1567 1567 1567
1533 1533 1534 1534 1534 1534 1534 1534 1533 1533 1534 1534 1535 1536 1536 1537 1538 1539 1540 1542 1542 1543 1543 1544 1545 1544 1544 1545 1546 1547 1548 1549 1550 1550 1551 1552 1552 1553 1554 1554 1554 1555 1556 1557 1558 1559 1559 1560 1560 1561 1561 1561 1561 1562 1562 1563 1563 1563 1564 1564 1564 1564 1564 1564 1564 1565 1565 1565 1565 1565 1565 1564 1565 1565 1565 1565 1565 1565 1566 1566 1566 1566 1566 1567 1567
1532 1533 1533 1533 1533 1533 1533 1533 1532 1532 1532 1533 1533 1534 1535 1536 1537 1537 1538 1539 1540 1541 1542 1543 1543 1543 1543 1544 1544 1545 1547 1548 1548 1549 1549 1550 1551 1552 1553 1554 1554 1554 1555 1556 1557 1557 1558 1559 1559 1560 1560 1560 1561 1561 1561 1562 1562 1563 1563 1563 1563 1563 1564 1564 1564 1564 1564 1564 1564 1564 1564 1564 1564 1564 1564 1565 1565 1565 1565 1565 1565 1566 1566 1566 1566
1533 1533 1533 1533 1532 1532 1532 1532 1532 1532 1532 1532 1533 1533 1533 1534 1535 1536 1537 1538 1539 1539 1540 1541 1542 1542 1542 1543 1543 1544 1546 1546 1547 1547 1548 1549 1550 1551 1552 1553 1553 1553 1553 1554 1555 1556 1557 1557 1558 1559 1559 1559 1560 1560 1561 1561 1562 1562 1563 1563 1563 1563 1563 1563 1563 1563 1563 1563 1563 1564 1564 1564 1564 1564 1564 1564 1564 1564 1564 1565 1565 1565 1566 1566 1566
1533 1533 1533 1533 1533 1533 1532 1532 1532 1533 1533 1533 1533 1533 1533 1534 1534 1536 1537 1537 1538 1539 1540 1540 1541 1541 1542 1543 1543 1543 1544 1544 1545 1546 1547 1547 1548 1549 1550 1552 1552 1553 1553 1552 1553 1554 1555 1556 1557 1557 1558 1559 1559 1559 1560 1561 1561 1562 1562 1562 1562 1562 1562 1563 1563 1563 1562 1562 1563 1563 1563 1563 1563 1563 1564 1564 1564 1564 1564 1564 1564 1565 1565 1565 1566
1533 1534 1534 1534 1534 1534 1534 1534 1534 1534 1534 1534 1534 1534 1534 1534 1535 1535 1536 1537 1538 1538 1539 1539 1539 1540 1541 1542 1542 1543 1542 1543 1543 1544 1545 1546 1547 1548 1549 1550 1551 1552 1553 1553 1552 1553 1553 1554 1555 1556 1557 1557 1558 1559 1559 1560 1561 1561 1561 1562 1562 1562 1562 1562 1562 1562 1562 1562 1562 1563 1563 1563 1563 1563 1563 1563 1563 1563 1564 1564 1564 1564 1564 1564 1565
1533 1534 1535 1535 1535 1535 1535 1535 1535 1535 1535 1535 1534 1534 1534 1534 1535 1535 1536 1536 1537 1537 1537 1537 1538 1539 1540 1541 1542 1542 1542 1542 1542 1543 1544 1545 1546 1546 1547 1548 1549 1550 1551 1552 1552 1552 1552 1552 1553 1554 1555 1556 1557 1557 1558 1559 1559 1560 1560 1561 1561 1561 1561 1561 1562 1562 1562 1562 1562 1562 1562 1562 1563 1563 1563 1563 1563 1563 1563 1563 1563 1563 1563 1564 1564
1533 1534 1535 1535 1535 1536 1536 1536 1536 1536 1535 1535 1534 1534 1534 1534 1534 1534 1535 1535 1535 1535 1536 1536 1537 1538 1539 1540 1541 1541 1542 1542 1542 1542 1543 1544 1544 1545 1546 1547 1548 1548 1549 1550 1551 1551 1551 1551 1552 1552 1553 1554 1555 1555 1556 1557 1557 1558 1558 1559 1559 1560 1560 1560 1561 1561 1561 1561 1561 1562 1562 1562 1562 1562 1562 1562 1562 1562 1562 1563 1563 1563 1563 1563 1563
1533 1534 1534 1534 1535 1536 1536 1536 1536 1536 1535 1535 1535 1534 1535 1534 1534 1534 1534 1534 1534 1535 1535 1535 1536 1537 1538 1539 1539 1540 1541 1541 1541 1541 1542 1543 1543 1544 1545 1546 1546 1547 1548 1548 1549 1550 1550 1551 1552 1552 1552 1552 1553 1553 1554 1555 1555 1556 1557 1558 1558 1558 1558 1559 1559 1560 1560 1560 1560 1560 1561 1561 1561 1561 1561 1561 1561 1562 1562 1562 1562 1562 1562 1562 1562
1533 1533 1534 1534 1535 1535 1535 1535 1535 1536 1536 1535 1535 1535 1535 1534 1534 1534 1534 1534 1534 1534 1535 1535 1536 1536 1537 1538 1539 1539 1540 1540 1540 1541 1541 1542 1542 1543 1544 1544 1545 1546 1546 1547 1547 1548 1549 1550 1551 1551 1551 1551 1552 1552 1553 1553 1554 1555 1556 1556 1556 1556 1556 1556 1557 1558 1559 1559 1559 1559 1559 1560 1560 1560 1560 1560 1561 1561 1561 1561 1561 1561 1562 1562 1562
1533 1533 1534 1534 1535 1535 1535 1535 1535 1535 1535 1535 1535 1535 1535 1534 1534 1535 1535 1534 1534 1534 1535 1535 1535 1536 1536 1537 1538 1538 1539 1539 1540 1540 1540 1541 1542 1542 1543 1543 1544 1545 1545 1545 1546 1547 1547 1548 1549 1550 1550 1551 1551 1551 1551 1552 1552 1553 1554 1554 1555 1555 1555 1555 1555 1556 1557 1558 1558 1558 1558 1558 1558 1559 1559 1559 1559 1560 1560 1560 1560 1560 1561 1561 1561
1533 1533 1534 1534 1535 1535 1536 1535 1535 1535 1535 1535 1535 1535 1534 1534 1535 1535 1535 1535 1535 1535 1535 1535 1535 1536 1536 1536 1537 1537 1538 1538 1539 1539 1540 1540 1541 1542 1543 1543 1544 1544 1545 1545 1545 1546 1546 1547 1547 1548 1549 1550 1550 1550 1550 1551 1551 1552 1552 1552 1553 1553 1553 1553 1553 1554 1555 1555 1556 1556 1556 1557 1557 1557 1557 1557 1558 1558 1559 1559 1559 1559 1559 1559 1560
1533 1533 1534 1534 1535 1535 1536 1536 1536 1536 1536 1535 1535 1535 1535 1535 1535 1535 1535 1535 1535 1535 1535 1535 1535 1536 1536 1536 1536 1536 1536 1537 1537 1538 1538 1539 1541 1542 1542 1543 1543 1544 1544 1544 1545 1545 1546 1546 1546 1547 1548 1548 1549 1549 1549 1549 1550 1550 1550 1551 1551 1551 1551 1551 1551 1552 1553 1553 1554 1554 1554 1555 1555 1555 1555 1555 1556 1556 1557 1557 1558 1558 1558 1558 1558
1533 1533 1534 1535 1535 1535 1536 1536 1536 1536 1536 1536 1536 1536 1536 1536 1536 1535 1536 1536 1536 1536 1536 1535 1536 1536 1535 1535 1535 1536 1536 1536 1537 1537 1538 1539 1540 1541 1541 1542 1542 1542 1543 1543 1544 1544 1545 1545 1546 1546 1547 1547 1548 1548 1548 1548 1548 1548 1549 1549 1549 1549 1549 1549 1550 1550 1551 1551 1552 1552 1553 1553 1553 1554 1554 1553 1553 1554 1554 1555 1555 1556 1556 1556 1556
1533 1533 1534 1535 1535 1536 1536 1536 1536 1536 1537 1537 1537 1537 1537 1537 1537 1536 1536 1536 1536 1536 1536 1536 1536 1536 1536 1536 1536 1536 1536 1537 1537 1538 1538 1539 1540 1540 1540 1541 1541 1541 1542 1542 1543 1543 1544 1544 1545 1545 1546 1546 1546 1547 1547 1547 1547 1547 1547 1547 1547 1548 1548 1548 1548 1549 1549 1550 1550 1551 1551 1551 1551 1552 1552 1552 1552 1552 1552 1553 1553 1554 1554 1554 1555
1533 1533 1534 1535 1536 1536 1536 1537 1537 1537 1537 1537 1537 1538 1537 1538 1538 1537 1537 1537 1537 1537 1537 1537 1537 1537 1537 1537 1537 1537 1537 1537 1537 1538 1538 1538 1539 1539 1539 1540 1540 1541 1541 1542 1542 1542 1542 1543 1544 1544 1545 1544 1544 1544 1544 1545 1546 1545 1546 1546 1546 1546 1546 1546 1546 1547 1547 1548 1548 1548 1549 1549 1549 1550 1550 1550 1550 1550 1550 1550 1551 1551 1552 1552 1553
1532 1533 1534 1535 1536 1536 1537 1537 1538 1538 1538 1538 1538 1538 1538 1538 1538 1538 1538 1538 1538 1538 1538 1538 1538 1538 1537 1537 1537 1537 1537 1537 1538 1538 1538 1538 1538 1538 1539 1539 1539 1540 1540 1541 1541 1541 1541 1541 1542 1543 1542 1542 1542 1542 1542 1543 1544 1544 1544 1544 1544 1544 1544 1545 1545 1545 1545 1546 1546 1546 1546 1547 1547 1547 1547 1548 1548 1548 1548 1548 1548 1549 1549 1550 1550
1532 1533 1534 1535 1536 1536 1537 1538 1538 1539 1539 1539 1539 1539 1539 1539 1539 1539 1539 1539 1539 1539 1538 1538 1538 1538 1538 1538 1538 1538 1538 1538 1538 1538 1538 1538 1538 1538 1538 1538 1538 1538 1539 1540 1540 1541 1540 1540 1541 1541 1541 1541 1541 1540 1541 1541 1542 1543 1543 1543 1543 1543 1542 1543 1543 1543 1543 1543 1544 1544 1544 1544 1544 1544 1545 1545 1545 1545 1545 1545 1546 1546 1547 1547 1548
1531 1532 1533 1534 1535 1536 1537 1538 1539 1539 1540 1540 1540 1540 1540 1540 1540 1540 1539 1539 1539 1539 1539 1539 1539 1538 1538 1538 1538 1538 1538 1538 1538 1538 1538 1538 1538 1538 1538 1537 1537 1538 1538 1539 1540 1540 1540 1540 1540 1541 1541 1541 1540 1540 1540 1540 1541 1541 1541 1541 1541 1541 1541 1541 1541 1541 1541 1541 1541 1541 1541 1541 1541 1542 1542 1542 1542 1542 1542 1543 1543 1543 1544 1545 1545
1530 1532 1533 1534 1535 1536 1537 1538 1539 1539 1540 1540 1540 1540 1541 1541 1541 1540 1540 1540 1540 1540 1540 1539 1539 1539 1539 1539 1539 1538 1538 1538 1538 1538 1538 1538 1538 1538 1538 1538 1538 1538 1538 1538 1539 1539 1540 1540 1540 1540 1540 1540 1540 1540 1540 1539 1539 1540 1540 1539 1539 1539 1539 1539 1538 1538 1538 1538 1538 1538 1538 1538 1539 1539 1539 1539 1539 1539 1540 1540 1540 1541 1541 1542 1542
1530 1531 1532 1533 1534 1536 1537 1538 1539 1540 1540 1540 1541 1541 1541 1541 1541 1541 1541 1541 1540 1540 1540 1540 1540 1539 1539 1539 1539 1539 1539 1538 1538 1538 1538 1538 1538 1538 1538 1538 1538 1538 1538 1538 1538 1538 1539 1539 1539 1539 1539 1539 1539 1539 1539 1539 1539 1538 1538 1538 1537 1537 1537 1536 1536 1536 1536 1535 1535 1535 1535 1535 1535 1535 1535 1536 1536 1536 1537 1537 1537 1538 1538 1538 1539
1530 1531 1532 1533 1534 1535 1536 1537 1538 1539 1540 1540 1541 1541 1541 1541 1541 1542 1541 1541 1541 1541 1541 1540 1540 1540 1540 1540 1539 1539 1539 1539 1539 1539 1538 1538 1538 1538 1538 1538 1538 1538 1538 1538 1538 1538 1538 1538 1538 1538 1538 1538 1538 1538 1538 1538 1537 1537 1537 1536 1536 1535 1534 1534 1534 1533 1533 1533 1532 1532 1532 1532 1532 1532 1532 1533 1533 1533 1534 1534 1534 1535 1535 1536 1536
1530 1531 1532 1532 1534 1535 1536 1536 1537 1538 1539 1540 1541 1541 1541 1541 1541 1542 1542 1541 1541 1541 1541 1541 1541 1541 1540 1540 1540 1540 1540 1539 1539 1539 1539 1539 1538 1538 1538 1538 1538 1538 1538 1537 1537 1538 1538 1538 1537 1537 1537 1537 1536 1536 1536 1536 1535 1535 1535 1534 1534 1533 1532 1531 1531 1530 1530 1529 1529 1529 1529 1529 1529 1529 1529 1529 1530 1530 1531 1531 1532 1532 1532 1533 1533
1529 1530 1531 1532 1533 1534 1535 1536 1537 1538 1538 1539 1540 1541 1541 1542 1542 1542 1542 1541 1541 1541 1541 1541 1541 1541 1541 1541 1541 1540 1540 1540 1540 1539 1539 1539 1538 1538 1538 1538 1537 1537 1537 1537 1537 1537 1537 1537 1537 1537 1536 1536 1535 1535 1534 1534 1533 1533 1532 1532 1531 1530 1529 1529 1528 1528 1527 1527 1526 1526 1526 1526 1526 1526 1526 1526 1527 1527 1528 1528 1529 1529 1529 1530 1530
1528 1529 1530 1531 1532 1534 1535 1537 1538 1538 1538 1539 1540 1540 1541 1541 1541 1541 1541 1541 1541 1541 1541 1541 1541 1541 1541 1541 1541 1541 1540 1540 1540 1540 1539 1539 1538 1538 1538 1537 1537 1537 1537 1537 1537 1536 1536 1536 1536 1536 1535 1535 1534 1533 1533 1532 1531 1530 1530 1529 1528 1528 1527 1526 1526 1525 1525 1525 1524 1524 1524 1524 1524 1524 1524 1524 1524 1524 1524 1525 1525 1526 1526 1526 1527
1527 1528 1528 1529 1530 1532 1533 1535 1537 1537 1537 1538 1539 1540 1540 1541 1541 1541 1541 1541 1541 1541 1540 1540 1541 1541 1541 1540 1540 1540 1540 1540 1540 1540 1539 1539 1539 1538 1538 1537 1537 1537 1537 1536 1536 1535 1534 1534 1534 1534 1533 1533 1532 1532 1531 1530 1529 1528 1527 1526 1526 1525 1525 1524 1523 1523 1523 1523 1522 1522 1522 1521 1521 1521 1521 1521 1521 1522 1522 1522 1522 1523 1523 1523 1523
1526 1526 1526 1527 1528 1529 1530 1531 1533 1534 1535 1536 1537 1539 1540 1540 1540 1539 1539 1539 1540 1540 1540 1539 1539 1540 1540 1540 1540 1540 1540 1540 1540 1539 1539 1539 1538 1538 1538 1537 1537 1536 1536 1535 1535 1534 1533 1533 1533 1533 1532 1531 1531 1530 1529 1528 1527 1526 1525 1524 1524 1523 1522 1522 1521 1521 1521 1520 1520 1519 1519 1519 1518 1518 1518 1518 1518 1518 1519 1519 1519 1519 1519 1519 1519
1524 1524 1524 1525 1526 1527 1528 1529 1530 1532 1533 1533 1535 1537 1537 1537 1537 1537 1537 1537 1538 1538 1539 1539 1538 1538 1538 1539 1539 1539 1539 1539 1539 1539 1538 1538 1538 1537 1537 1537 1536 1536 1535 1535 1534 1534 1533 1532 1531 1531 1530 1529 1529 1528 1527 1526 1524 1524 1523 1522 1522 1521 1520 1520 1519 1519 1518 1518 1517 1517 1516 1516 1516 1516 1516 1515 1515 1515 1515 1515 1515 1515 1515 1515 1516
1522 1522 1522 1523 1524 1525 1526 1527 1528 1530 1530 1531 1533 1534 1534 1533 1534 1534 1534 1535 1535 1536 1537 1537 1537 1537 1537 1537 1538 1538 1538 1538 1538 1538 1537 1537 1537 1537 1536 1536 1536 1535 1535 1534 1533 1533 1532 1531 1530 1529 1528 1528 1526 1526 1525 1524 1522 1521 1520 1519 1519 1519 1518 1517 1516 1516 1516 1515 1515 1514 1514 1514 1514 1513 1513 1512 1512 1512 1512 1512 1512 1512 1512 1512 1512
1519 1520 1520 1521 1522 1523 1524 1525 1526 1527 1527 1529 1530 1531 1531 1531 1531 1531 1532 1533 1532 1533 1533 1534 1535 1535 1535 1536 1536 1536 1537 1537 1537 1537 1537 1536 1536 1536 1535 1535 1534 1533 1533 1533 1532 1531 1530 1529 1528 1527 1526 1526 1525 1523 1523 1522 1521 1520 1518 1516 1515 1515 1515 1514 1514 1513 1513 1513 1512 1512 1512 1511 1510 1510 1509 1509 1509 1509 1508 1508 1508 1508 1508 1509 1509
1517 1517 1518 1519 1519 1520 1521 1522 1524 1525 1525 1525 1526 1527 1528 1529 1528 1528 1529 1529 1529 1529 1530 1531 1532 1533 1533 1534 1534 1534 1535 1536 1536 1536 1536 1535 1535 1535 1534 1533 1532 1532 1531 1531 1530 1529 1528 1527 1526 1525 1524 1523 1522 1521 1520 1520 1519 1518 1517 1515 1513 1512 1512 1511 1511 1511 1510 1509 1508 1508 1508 1507 1506 1506 1505 1505 1505 1505 1505 1504 1505 1505 1505 1505 1505
1515 1516 1516 1516 1517 1517 1518 1519 1520 1521 1522 1522 1523 1524 1525 1526 1526 1526 1526 1526 1527 1527 1527 1528 1529 1530 1530 1531 1532 1533 1534 1534 1535 1535 1534 1534 1534 1533 1532 1531 1531 1530 1529 1529 1528 1527 1526 1525 1524 1523 1521 1521 1520 1519 1518 1517 1516 1515 1514 1513 1511 1510 1509 1507 1508 1509 1507 1505 1504 1503 1503 1503 1502 1502 1502 1501 1502 1502 1502 1502 1502 1501 1501 1501 1501
1514 1514 1514 1515 1515 1515 1516 1517 1517 1518 1519 1520 1520 1522 1523 1523 1524 1524 1524 1525 1525 1525 1525 1525 1526 1526 1527 1528 1529 1531 1532 1532 1532 1532 1532 1532 1531 1531 1531 1530 1529 1528 1527 1527 1526 1525 1524 1523 1522 1521 1519 1518 1518 1516 1515 1514 1514 1512 1511 1510 1508 1507 1506 1503 1503 1505 1505 1502 1500 1499 1499 1500 1500 1498 1498 1499 1498 1499 1499 1499 1499 1498 1498 1498 1497
1512 1512 1513 1513 1514 1514 1514 1515 1515 1515 1516 1517 1518 1519 1520 1521 1521 1521 1522 1522 1523 1523 1523 1523 1523 1524 1524 1525 1526 1528 1529 1529 1530 1530 1530 1529 1529 1529 1528 1528 1527 1526 1525 1524 1523 1523 1521 1520 1519 1518 1516 1515 1515 1514 1513 1511 1510 1509 1508 1507 1505 1503 1502 1500 1499 1500 1501 1500 1498 1495 1494 1497 1497 1495 1494 1495 1495 1495 1495 1495 1495 1495 1494 1494 1494
1511 1511 1511 1512 1512 1512 1513 1513 1513 1514 1514 1515 1516 1517 1518 1518 1518 1518 1519 1519 1519 1520 1521 1521 1521 1522 1522 1522 1523 1524 1525 1526 1527 1527 1527 1527 1527 1526 1526 1525 1524 1524 1523 1522 1521 1520 1518 1517 1515 1515 1514 1512 1511 1510 1510 1508 1507 1506 1505 1504 1503 1501 1500 1498 1496 1495 1497 1497 1495 1491 1489 1491 1493 1491 1489 1490 1490 1490 1490 1490 1490 1490 1490 1489 1489
1509 1510 1510 1510 1511 1511 1511 1511 1511 1512 1512 1513 1514 1515 1515 1516 1516 1515 1516 1516 1516 1517 1518 1519 1519 1519 1520 1520 1520 1521 1522 1523 1523 1524 1524 1524 1524 1523 1523 1522 1521 1521 1520 1519 1518 1517 1516 1514 1512 1511 1511 1509 1507 1507 1506 1505 1503 1502 1501 1500 1499 1498 1496 1495 1493 1492 1493 1494 1492 1487 1484 1485 1488 1486 1483 1484 1485 1485 1485 1484 1485 1485 1484 1484 1483
1508 1508 1509 1509 1509 1509 1509 1509 1509 1510 1510 1511 1512 1512 1513 1513 1513 1513 1513 1513 1513 1514 1515 1516 1516 1517 1518 1518 1518 1518 1519 1520 1520 1521 1521 1521 1520 1520 1519 1519 1518 1518 1517 1517 1516 1515 1513 1512 1509 1508 1508 1507 1505 1503 1503 1502 1500 1499 1497 1496 1495 1494 1492 1491 1490 1489 1490 1491 1490 1484 1478 1479 1483 1481 1477 1479 1480 1479 1479 1479 1479 1479 1479 1478 1478
1508 1507 1507 1507 1507 1507 1508 1508 1508 1508 1509 1509 1510 1510 1510 1511 1511 1511 1511 1511 1511 1512 1513 1514 1515 1515 1515 1516 1516 1516 1517 1518 1518 1518 1519 1519 1518 1518 1517 1516 1515 1515 1514 1514 1513 1512 1511 1509 1507 1505 1504 1504 1502 1500 1500 1499 1497 1496 1494 1492 1491 1490 1488 1486 1485 1485 1485 1487 1488 1483 1475 1474 1479 1476 1472 1474 1475 1473 1474 1475 1474 1475 1475 1475 1475
1507 1506 1506 1506 1505 1505 1506 1506 1507 1507 1507 1507 1507 1508 1508 1508 1509 1509 1509 1510 1510 1511 1511 1512 1512 1512 1512 1513 1514 1515 1515 1516 1516 1516 1516 1517 1516 1515 1514 1513 1512 1511 1511 1510 1509 1508 1507 1505 1504 1502 1501 1500 1499 1498 1496 1495 1494 1492 1491 1489 1488 1487 1485 1482 1480 1480 1481 1482 1483 1482 1474 1471 1474 1473 1469 1470 1470 1469 1469 1470 1470 1471 1472 1471 1470
1505 1505 1505 1504 1504 1504 1504 1504 1505 1504 1505 1505 1505 1506 1506 1506 1507 1507 1507 1508 1508 1508 1509 1509 1510 1510 1510 1511 1512 1512 1513 1513 1513 1513 1513 1514 1513 1512 1510 1509 1508 1507 1507 1506 1505 1503 1502 1501 1500 1499 1497 1496 1496 1494 1493 1492 1491 1490 1487 1484 1484 1484 1482 1478 1476 1476 1477 1477 1478 1479 1473 1469 1471 1470 1466 1466 1466 1465 1465 1466 1467 1468 1468 1467 1466
1503 1503 1503 1502 1502 1502 1502 1503 1503 1503 1503 1503 1503 1504 1504 1504 1505 1505 1505 1505 1505 1506 1506 1507 1507 1507 1508 1509 1509 1509 1509 1510 1510 1510 1510 1510 1509 1508 1507 1506 1504 1503 1503 1501 1500 1499 1498 1497 1496 1495 1493 1492 1491 1490 1489 1488 1487 1487 1484 1481 1481 1481 1478 1475 1474 1472 1472 1472 1473 1475 1471 1467 1468 1468 1465 1462 1462 1462 1463 1463 1464 1465 1464 1464 1463
1501 1501 1500 1500 1500 1500 1500 1501 1501 1501 1501 1501 1501 1501 1502 1502 1503 1503 1503 1503 1503 1504 1504 1505 1505 1505 1506 1507 1506 1506 1506 1507 1507 1507 1507 1506 1505 1504 1503 1502 1500 1500 1499 1497 1496 1494 1493 1491 1490 1489 1488 1487 1486 1484 1483 1483 1482 1481 1480 1478 1477 1476 1474 1472 1472 1470 1468 1467 1469 1472 1469 1466 1466 1466 1464 1461 1458 1457 1459 1461 1462 1462 1462 1461 1461